When you browse on this site, cookies collect data to enhance your experience and personalize the content and advertising you see.
Visit our Privacy Policy to learn more. By continuing to use the site, you agree to this use of cookies and data.
  • In Hungary
  • List of Countries
  • For 7 days
  • Water Temperature
  • Satellite Maps
  • Weather Map
  • News
  • Weather Widgets
  • user-avatar
    Login

    Hourly Weather Koulikoro

    Today, 18 January, Friday

    Time Temperature Precipitation Wind Pressure Humidity
    00:00 +28°C° 0 mm 1 mps 729 mmHg 13%
    01:00 +27°C° 0 mm 1 mps 729 mmHg 14%
    02:00 +26°C° 0 mm 1 mps 729 mmHg 15%
    03:00 +25°C° 0 mm 1 mps 729 mmHg 14%
    04:00 +24°C° 0 mm 2 mps 729 mmHg 14%
    05:00 +24°C° 0 mm 2 mps 729 mmHg 14%
    06:00 +25°C° 0 mm 2 mps 730 mmHg 13%
    07:00 +26°C° 0 mm 2 mps 730 mmHg 11%
    08:00 +28°C° 0 mm 2 mps 731 mmHg 10%
    09:00 +31°C° 0 mm 2 mps 731 mmHg 9%
    10:00 +34°C° 0 mm 1 mps 731 mmHg 8%
    11:00 +37°C° 0 mm 1 mps 731 mmHg 6%
    12:00 +39°C° 0 mm 1 mps 730 mmHg 6%
    13:00 +40°C° 0 mm 1 mps 729 mmHg 6%
    14:00 +41°C° 0 mm 1 mps 729 mmHg 6%
    15:00 +39°C° 0 mm 1 mps 729 mmHg 7%
    16:00 +37°C° 0 mm 1 mps 728 mmHg 8%
    17:00 +36°C° 0 mm 1 mps 728 mmHg 8%
    18:00 +34°C° 0 mm 1 mps 729 mmHg 9%
    19:00 +32°C° 0 mm 2 mps 730 mmHg 9%
    20:00 +30°C° 0 mm 2 mps 730 mmHg 10%
    21:00 +28°C° 0 mm 3 mps 730 mmHg 10%
    22:00 +27°C° 0 mm 3 mps 731 mmHg 10%
    23:00 +26°C° 0 mm 3 mps 731 mmHg 10%

    Tomorrow, 19 January, Saturday

    Time Temperature Precipitation Wind Pressure Humidity
    00:00 +25°C° 0 mm 4 mps 731 mmHg 10%
    01:00 +23°C° 0 mm 4 mps 731 mmHg 10%
    02:00 +22°C° 0 mm 4 mps 730 mmHg 11%
    03:00 +21°C° 0 mm 4 mps 731 mmHg 12%
    04:00 +21°C° 0 mm 4 mps 731 mmHg 13%
    05:00 +20°C° 0 mm 4 mps 731 mmHg 14%
    06:00 +21°C° 0 mm 4 mps 732 mmHg 14%
    07:00 +22°C° 0 mm 5 mps 732 mmHg 15%
    08:00 +23°C° 0 mm 5 mps 733 mmHg 15%
    09:00 +26°C° 0 mm 4 mps 733 mmHg 13%
    10:00 +28°C° 0 mm 3 mps 733 mmHg 12%
    11:00 +30°C° 0 mm 3 mps 734 mmHg 11%
    12:00 +33°C° 0 mm 3 mps 733 mmHg 10%
    13:00 +34°C° 0 mm 3 mps 732 mmHg 10%
    14:00 +35°C° 0 mm 2 mps 731 mmHg 9%
    15:00 +34°C° 0 mm 2 mps 731 mmHg 10%
    16:00 +32°C° 0 mm 2 mps 731 mmHg 11%
    17:00 +32°C° 0 mm 2 mps 731 mmHg 12%
    18:00 +30°C° 0 mm 2 mps 732 mmHg 14%
    19:00 +28°C° 0 mm 2 mps 732 mmHg 15%
    20:00 +26°C° 0 mm 2 mps 732 mmHg 16%
    21:00 +25°C° 0 mm 2 mps 732 mmHg 17%
    22:00 +24°C° 0 mm 2 mps 732 mmHg 18%
    23:00 +23°C° 0 mm 2 mps 732 mmHg 20%

    Day after tomorrow, 20 January, Sunday

    Time Temperature Precipitation Wind Pressure Humidity
    00:00 +23°C° 0 mm 2 mps 732 mmHg 20%
    01:00 +21°C° 0 mm 2 mps 732 mmHg 20%
    02:00 +20°C° 0 mm 2 mps 731 mmHg 20%
    03:00 +20°C° 0 mm 2 mps 731 mmHg 17%
    04:00 +19°C° 0 mm 3 mps 731 mmHg 15%
    05:00 +19°C° 0 mm 3 mps 732 mmHg 12%
    06:00 +20°C° 0 mm 3 mps 732 mmHg 11%
    07:00 +21°C° 0 mm 3 mps 733 mmHg 10%
    08:00 +22°C° 0 mm 4 mps 733 mmHg 9%
    09:00 +26°C° 0 mm 4 mps 733 mmHg 8%
    10:00 +28°C° 0 mm 3 mps 733 mmHg 8%
    11:00 +31°C° 0 mm 3 mps 733 mmHg 7%
    12:00 +32°C° 0 mm 2 mps 732 mmHg 7%
    13:00 +35°C° 0 mm 2 mps 732 mmHg 7%
    14:00 +35°C° 0 mm 1 mps 731 mmHg 7%
    15:00 +34°C° 0 mm 1 mps 731 mmHg 8%
    16:00 +33°C° 0 mm 1 mps 731 mmHg 9%
    17:00 +32°C° 0 mm 1 mps 731 mmHg 10%
    18:00 +30°C° 0 mm 1 mps 731 mmHg 11%
    19:00 +28°C° 0 mm 1 mps 732 mmHg 12%
    20:00 +27°C° 0 mm 2 mps 733 mmHg 12%
    21:00 +25°C° 0 mm 2 mps 733 mmHg 12%
    22:00 +24°C° 0 mm 2 mps 733 mmHg 12%
    23:00 +23°C° 0 mm 2 mps 733 mmHg 12%

    21 January, Monday

    Time Temperature Precipitation Wind Pressure Humidity
    00:00 +21°C° 0 mm 2 mps 732 mmHg 12%
    01:00 +20°C° 0 mm 2 mps 732 mmHg 12%
    02:00 +20°C° 0 mm 2 mps 731 mmHg 12%
    03:00 +19°C° 0 mm 2 mps 731 mmHg 12%
    04:00 +19°C° 0 mm 2 mps 731 mmHg 11%
    05:00 +18°C° 0 mm 2 mps 731 mmHg 10%
    06:00 +19°C° 0 mm 2 mps 732 mmHg 9%
    07:00 +21°C° 0 mm 3 mps 732 mmHg 8%
    08:00 +22°C° 0 mm 3 mps 733 mmHg 7%
    09:00 +26°C° 0 mm 3 mps 733 mmHg 7%
    10:00 +29°C° 0 mm 3 mps 733 mmHg 6%
    11:00 +32°C° 0 mm 2 mps 733 mmHg 6%
    12:00 +35°C° 0 mm 2 mps 732 mmHg 6%
    13:00 +35°C° 0 mm 1 mps 731 mmHg 6%
    14:00 +37°C° 0 mm 1 mps 730 mmHg 6%
    15:00 +33°C° 0 mm 0 mps 730 mmHg 7%
    16:00 +32°C° 0 mm 0 mps 730 mmHg 8%
    17:00 +30°C° 0 mm 0 mps 730 mmHg 9%
    18:00 +31°C° 0 mm 1 mps 731 mmHg 10%
    19:00 +29°C° 0 mm 1 mps 731 mmHg 11%
    20:00 +27°C° 0 mm 1 mps 732 mmHg 11%
    21:00 +26°C° 0 mm 1 mps 732 mmHg 12%
    22:00 +25°C° 0 mm 2 mps 732 mmHg 12%
    23:00 +23°C° 0 mm 2 mps 732 mmHg 12%

    22 January, Tuesday

    Time Temperature Precipitation Wind Pressure Humidity
    00:00 +23°C° 0 mm 2 mps 731 mmHg 12%
    01:00 +21°C° 0 mm 2 mps 731 mmHg 11%
    02:00 +20°C° 0 mm 2 mps 730 mmHg 11%
    03:00 +19°C° 0 mm 2 mps 731 mmHg 11%
    04:00 +19°C° 0 mm 2 mps 731 mmHg 10%
    05:00 +18°C° 0 mm 2 mps 731 mmHg 10%
    06:00 +20°C° 0 mm 2 mps 731 mmHg 9%
    07:00 +21°C° 0 mm 2 mps 732 mmHg 8%
    08:00 +24°C° 0 mm 3 mps 733 mmHg 7%
    09:00 +27°C° 0 mm 3 mps 732 mmHg 6%
    10:00 +30°C° 0 mm 2 mps 732 mmHg 6%
    11:00 +32°C° 0 mm 2 mps 732 mmHg 5%
    12:00 +35°C° 0 mm 2 mps 731 mmHg 5%
    13:00 +35°C° 0 mm 1 mps 731 mmHg 5%
    14:00 +37°C° 0 mm 1 mps 730 mmHg 5%
    15:00 +36°C° 0 mm 1 mps 730 mmHg 6%
    16:00 +32°C° 0 mm 0 mps 730 mmHg 7%
    17:00 +31°C° 0 mm 0 mps 729 mmHg 8%
    18:00 +31°C° 0 mm 1 mps 730 mmHg 9%
    19:00 +29°C° 0 mm 1 mps 730 mmHg 9%
    20:00 +27°C° 0 mm 1 mps 731 mmHg 10%
    21:00 +26°C° 0 mm 2 mps 731 mmHg 10%
    22:00 +25°C° 0 mm 2 mps 731 mmHg 10%
    23:00 +23°C° 0 mm 2 mps 731 mmHg 10%

    23 January, Wednesday

    Time Temperature Precipitation Wind Pressure Humidity
    00:00 +21°C° 0 mm 2 mps 731 mmHg 10%
    01:00 +21°C° 0 mm 2 mps 730 mmHg 10%
    02:00 +20°C° 0 mm 2 mps 730 mmHg 9%
    03:00 +19°C° 0 mm 2 mps 730 mmHg 9%
    04:00 +19°C° 0 mm 2 mps 730 mmHg 9%
    05:00 +18°C° 0 mm 2 mps 730 mmHg 9%
    06:00 +20°C° 0 mm 2 mps 731 mmHg 9%
    07:00 +21°C° 0 mm 3 mps 731 mmHg 8%
    08:00 +24°C° 0 mm 3 mps 732 mmHg 8%
    09:00 +26°C° 0 mm 3 mps 732 mmHg 7%
    10:00 +29°C° 0 mm 3 mps 732 mmHg 6%
    11:00 +33°C° 0 mm 3 mps 731 mmHg 5%
    12:00 +34°C° 0 mm 2 mps 731 mmHg 5%
    13:00 +36°C° 0 mm 2 mps 730 mmHg 5%
    14:00 +36°C° 0 mm 1 mps 729 mmHg 5%
    15:00 +35°C° 0 mm 1 mps 729 mmHg 6%
    16:00 +34°C° 0 mm 1 mps 729 mmHg 7%
    17:00 +33°C° 0 mm 1 mps 729 mmHg 8%
    18:00 +31°C° 0 mm 1 mps 729 mmHg 8%
    19:00 +30°C° 0 mm 1 mps 730 mmHg 8%
    20:00 +28°C° 0 mm 1 mps 730 mmHg 9%
    21:00 +27°C° 0 mm 1 mps 730 mmHg 9%
    22:00 +27°C° 0 mm 1 mps 730 mmHg 9%
    23:00 +26°C° 0 mm 1 mps 730 mmHg 10%
    Show more